CZ-6A DEB, 54524

Orbit data source: Space-Track

CZ-6A DEB, 54524 is space debris in SSO originally from a launch on Fri, 11 Nov 2022 UTC launched from the Taiyaun Space Center, China (TSC). Debris objects in space refer to the collection of defunct objects orbiting the Earth. Examples of debris include non-operational satellites, rocket bodies, and fragments generated from explosions, collisions, or faulty payload assembly.

Loading next visibility...
Identifier
54524, 2022-151KC
Orbit
SSO
Country
Flag of CNCN / PRC
Related business
Manufacturer
SAST
Mission
Spacecraft
Bus & Motor
Unknown
Mass
Unknown
Launch date (UTC)
2022-11-11 (4 years ago)
Launch vehicle
Unknown
Launch site
Taiyaun Space Center, China (TSC)
Object type
Payload
Rocket body
Debris
Shape & HBR
Unknown shape, 0.1 m
Radar Cross Section
Small (<0.1 m²)

Expand to show TLE details & history
Last TLE update: 2 days ago

TLE from 2 days ago
0 CZ-6A DEB
1 54524U 22151KC  26171.05374784  .00004037  00000-0  80112-3 0  9995
2 54524  98.4592 204.8026 0085633 265.3326  93.8090 14.60470079190303
Epoch: 2026-06-20T01:17Z
TLE epoch observation values (Epoch: 2026-06-20T01:17:23.813Z)
Latitude
0.00003°
Longitude
-82.82051°
Altitude
699.173 km
Speed
7.504 km/s
True Right ascension
13h 39m 12s
True Declination
0° 00' 00"
Sunlit
Object was in daylight at epoch
Visualization orbit readout
Latitude
Unknown
Longitude
Unknown
Altitude
Unknown
Speed
Unknown
Apparent Right ascension
Unknown
Apparent Declination
Unknown
Sunlit
N/A
Visualization observer readout
Local Sidereal Time
21:35:23
Azimuth
Unknown
Elevation
Unknown
Doppler factor
Unknown
Orbital elements
Apogee altitude
749.265 km
Perigee altitude
628.233 km
Semi-major axis
7,066.886 km
Eccentricity
0.00856
Inclination
98.4592°
RAAN
204.8026°
Arg. of periapsis
265.3326°
True anomaly
94.78737°
Mean anomaly
93.809°
Eccentric anomaly
94.29826°
Mean motion
3.65343 °/min
Orbital period
98.54 mins
BSTAR
0.00080112
Loading maneuver chart data...
Computing Atmospheric mass density...
Loading historical data...
Loading historical data...
Loading historical data...
Loading historical data...
Loading historical data...
Loading historical data...
Loading historical data...

Documentation

Showing up to 5 results
|